Williston, ND

2:14 PM CDT on July 28, 2016 (GMT -0500)
Sloulin International

Weather History for KISN - October, 2012

Change the Weather History Date:

Wednesday, October 3, 2012

  Actual Average Record
Temperature  
Mean Temperature 41 °F 49 °F  
Max Temperature 45 °F 63 °F 89 °F (1963)
Min Temperature 36 °F 35 °F 13 °F (1999)
Degree Days  
Heating Degree Days 24 16  
Month to date heating degree days 45 47  
Since 1 July heating degree days 273 393  
Cooling Degree Days 0 0  
Month to date cooling degree days 0 0  
Year to date cooling degree days 532 455  
Moisture  
Dew Point 37 °F    
Average Humidity 83    
Maximum Humidity 100    
Minimum Humidity 65    
Precipitation  
Precipitation 0.70 in 0.04 in 0.91 in (1915)
Month to date precipitation 0.70 0.11  
Year to date precipitation 10.29 12.29  
Sea Level Pressure  
Sea Level Pressure 30.19 in    
Wind  
Wind Speed 13 mph (North)    
Max Wind Speed 23 mph    
Max Gust Speed 30 mph    
Visibility 9 miles    
Events Rain    
T = Trace of Precipitation, MM = Missing Value Source: NWS Daily Summary

Daily Weather History Graph

Daily Weather History Graph

Search for Another Location

Airport or City:

Trip Planner

Search our weather history database for the weather conditions in past years. The results will help you decide how hot, cold, wet, or windy it might be!

Date:

Astronomy

Oct. 03, 2012 Rise Set
Actual Time 7:57 AM CDT 7:28 PM CDT
Civil Twilight 7:26 AM CDT 7:59 PM CDT
Nautical Twilight 6:50 AM CDT 8:35 PM CDT
Astronomical Twilight 6:13 AM CDT 9:12 PM CDT
Moon 9:02 PM CDT (10/3) 11:41 AM CDT (10/3)
Length of Visible Light 12h 33m
Length of Day
11h 31m
Waning Gibbous, 88% of the Moon is Illuminated
Oct 3
Waning Gibbous
Oct 8
Last Quarter
Oct 15
New
Oct 21
First Quarter
Oct 29
Full

Hourly Weather History & Observations

Time (CDT) Temp. Windchill Dew Point Humidity Pressure Visibility Wind Dir Wind Speed Gust Speed Precip Events Conditions
12:52 AM 45.0 °F 40.1 °F 35.1 °F 68% 29.95 in 10.0 mi North 9.2 mph - N/A   Mostly Cloudy
1:52 AM 44.1 °F 40.1 °F 35.1 °F 71% 29.94 in 10.0 mi North 6.9 mph - N/A   Scattered Clouds
2:52 AM 44.1 °F 42.5 °F 34.0 °F 68% 29.96 in 10.0 mi North 3.5 mph - N/A   Mostly Cloudy
3:52 AM 44.1 °F 40.8 °F 35.1 °F 71% 29.96 in 10.0 mi ENE 5.8 mph - N/A   Mostly Cloudy
4:52 AM 43.0 °F 36.4 °F 36.0 °F 76% 30.01 in 10.0 mi NNW 12.7 mph - 0.00 in Rain Light Rain
5:52 AM 41.0 °F 33.9 °F 39.0 °F 93% 30.00 in 10.0 mi North 12.7 mph - 0.01 in Rain Light Rain
6:52 AM 41.0 °F 32.5 °F 39.9 °F 96% 29.98 in 10.0 mi NNE 17.3 mph - 0.08 in Rain Light Rain
7:52 AM 41.0 °F 33.9 °F 39.0 °F 93% 30.04 in 10.0 mi North 12.7 mph - 0.06 in Rain Light Rain
7:57 AM 39.2 °F 30.8 °F 39.2 °F 100% 30.01 in 10.0 mi North 15.0 mph - 0.00 in Rain Light Rain
8:23 AM 39.2 °F 30.5 °F 37.4 °F 93% 30.02 in 9.0 mi North 16.1 mph 23.0 mph N/A Rain Rain
8:46 AM 39.2 °F 30.8 °F 37.4 °F 93% 30.00 in 8.0 mi NNE 15.0 mph - 0.07 in Rain Light Rain
8:52 AM 39.0 °F 30.6 °F 37.9 °F 96% 30.04 in 8.0 mi NNE 15.0 mph - 0.07 in Rain Light Rain
9:09 AM 39.2 °F 32.0 °F 37.4 °F 93% 30.02 in 10.0 mi North 11.5 mph - 0.01 in Rain Light Rain
9:52 AM 39.9 °F 35.1 °F 37.9 °F 93% 30.09 in 10.0 mi NNE 6.9 mph - 0.04 in Rain Light Rain
10:52 AM 41.0 °F 33.9 °F 39.0 °F 93% 30.12 in 7.0 mi North 12.7 mph - 0.06 in Rain Light Rain
11:52 AM 41.0 °F 33.1 °F 41.0 °F 100% 30.13 in 6.0 mi North 15.0 mph - 0.06 in Rain Light Rain
12:02 PM 41.0 °F 32.8 °F 39.2 °F 93% 30.09 in 7.0 mi North 16.1 mph - 0.00 in Rain Light Rain
12:15 PM 41.0 °F 33.1 °F 39.2 °F 93% 30.10 in 7.0 mi North 15.0 mph - 0.01 in Rain Light Rain
12:52 PM 41.0 °F 33.1 °F 39.0 °F 93% 30.17 in 8.0 mi North 15.0 mph - 0.05 in Rain Light Rain
1:16 PM 39.2 °F 29.6 °F 37.4 °F 93% 30.15 in 5.0 mi North 19.6 mph 26.5 mph 0.02 in Rain Rain
1:28 PM 39.2 °F 29.8 °F 37.4 °F 93% 30.15 in 6.0 mi North 18.4 mph - 0.04 in Rain Rain
1:34 PM 39.2 °F 30.2 °F 37.4 °F 93% 30.15 in 6.0 mi North 17.3 mph - 0.05 in Rain Rain
1:45 PM 39.2 °F 29.8 °F 37.4 °F 93% 30.15 in 5.0 mi North 18.4 mph 27.6 mph 0.07 in Rain Rain
1:52 PM 39.9 °F 30.8 °F 37.9 °F 93% 30.20 in 5.0 mi North 18.4 mph - 0.07 in Rain Light Rain
2:21 PM 39.2 °F 30.2 °F 37.4 °F 93% 30.15 in 7.0 mi North 17.3 mph 29.9 mph N/A Rain Light Rain
2:34 PM 39.2 °F 29.6 °F 37.4 °F 93% 30.16 in 7.0 mi North 19.6 mph 26.5 mph 0.03 in Rain Light Rain
2:52 PM 39.9 °F 31.4 °F 37.9 °F 93% 30.22 in 8.0 mi North 16.1 mph 25.3 mph 0.04 in Rain Light Rain
3:30 PM 39.2 °F 30.5 °F 37.4 °F 93% 30.19 in 7.0 mi North 16.1 mph 24.2 mph 0.02 in Rain Light Rain
3:50 PM 39.2 °F 30.8 °F 39.2 °F 100% 30.20 in 7.0 mi North 15.0 mph 24.2 mph 0.02 in Rain Light Rain
3:52 PM 39.9 °F 31.4 °F 39.0 °F 97% 30.25 in 7.0 mi North 16.1 mph 23.0 mph 0.02 in Rain Light Rain
4:07 PM 39.2 °F 29.8 °F 37.4 °F 93% 30.20 in 10.0 mi North 18.4 mph - 0.01 in Rain Light Rain
4:15 PM 39.2 °F 31.2 °F 37.4 °F 93% 30.21 in 10.0 mi North 13.8 mph 23.0 mph 0.01 in Rain Light Rain
4:21 PM 39.2 °F 29.8 °F 37.4 °F 93% 30.21 in 9.0 mi NNE 18.4 mph 24.2 mph 0.01 in Rain Light Rain
4:33 PM 39.2 °F 30.2 °F 37.4 °F 93% 30.22 in 10.0 mi North 17.3 mph - 0.02 in Rain Light Rain
4:43 PM 39.2 °F 30.2 °F 37.4 °F 93% 30.22 in 10.0 mi North 17.3 mph 21.9 mph 0.02 in Rain Light Rain
4:52 PM 39.9 °F 31.1 °F 37.9 °F 93% 30.27 in 10.0 mi North 17.3 mph 25.3 mph 0.02 in Rain Light Rain
5:03 PM 39.2 °F 30.5 °F 37.4 °F 93% 30.23 in 10.0 mi North 16.1 mph - 0.01 in Rain Light Rain
5:52 PM 39.0 °F 30.3 °F 37.0 °F 93% 30.32 in 10.0 mi North 16.1 mph 23.0 mph 0.03 in Rain Light Rain
6:45 PM 37.4 °F 28.5 °F 37.4 °F 100% 30.28 in 8.0 mi North 15.0 mph - 0.03 in Rain Light Rain
6:52 PM 37.9 °F 29.2 °F 37.0 °F 97% 30.34 in 8.0 mi North 15.0 mph - 0.03 in Rain Light Rain
6:58 PM 37.4 °F 27.8 °F 37.4 °F 100% 30.29 in 9.0 mi North 17.3 mph 24.2 mph 0.00 in Rain Light Rain
7:33 PM 37.4 °F 28.9 °F 37.4 °F 100% 30.31 in 10.0 mi North 13.8 mph 21.9 mph 0.01 in Rain Light Rain
7:52 PM 37.9 °F 28.5 °F 37.0 °F 97% 30.37 in 10.0 mi North 17.3 mph - 0.02 in Rain Light Rain
8:31 PM 37.4 °F 28.9 °F 37.4 °F 100% 30.33 in 10.0 mi North 13.8 mph - 0.01 in Rain Light Rain
8:44 PM 37.4 °F 27.8 °F 35.6 °F 93% 30.33 in 10.0 mi North 17.3 mph - 0.01 in Rain Light Rain
8:52 PM 37.0 °F 28.5 °F 36.0 °F 96% 30.40 in 10.0 mi North 13.8 mph - 0.01 in Rain Light Rain
8:57 PM 37.4 °F 29.3 °F 35.6 °F 93% 30.34 in 10.0 mi North 12.7 mph - 0.01 in Rain Light Rain
9:05 PM 37.4 °F 27.5 °F 35.6 °F 93% 30.34 in 10.0 mi North 18.4 mph 23.0 mph 0.01 in Rain Light Rain
9:37 PM 37.4 °F 28.9 °F 35.6 °F 93% 30.35 in 10.0 mi North 13.8 mph - 0.02 in Rain Light Rain
9:52 PM 37.0 °F 28.5 °F 36.0 °F 96% 30.42 in 10.0 mi North 13.8 mph - 0.02 in Rain Light Rain
10:22 PM 37.4 °F 28.5 °F 35.6 °F 93% 30.36 in 10.0 mi North 15.0 mph - 0.01 in Rain Light Rain
10:34 PM 37.4 °F 29.3 °F 35.6 °F 93% 30.36 in 10.0 mi North 12.7 mph - 0.01 in Rain Light Rain
10:41 PM 37.4 °F 29.8 °F 35.6 °F 93% 30.36 in 10.0 mi North 11.5 mph - 0.01 in Rain Light Rain
10:52 PM 37.0 °F 28.1 °F 36.0 °F 96% 30.43 in 10.0 mi North 15.0 mph - 0.01 in Rain Light Rain
11:45 PM 37.4 °F 29.8 °F 35.6 °F 93% 30.38 in 10.0 mi North 11.5 mph - 0.00 in Rain Light Rain
11:50 PM 37.4 °F 30.3 °F 35.6 °F 93% 30.38 in 10.0 mi North 10.4 mph - 0.00 in   Overcast
11:52 PM 37.0 °F 29.8 °F 36.0 °F 96% 30.44 in 10.0 mi North 10.4 mph - 0.00 in   Overcast